Salina, KS

3:35 PM CDT on July 23, 2016 (GMT -0500)
Salina Municipal

Weather History for KSLN - February, 2011

Change the Weather History Date:

Saturday, February 19, 2011

  Actual Average Record
Temperature  
Mean Temperature 48 °F 37 °F  
Max Temperature 53 °F 48 °F 79 °F (1930)
Min Temperature 42 °F 26 °F -3 °F (1978)
Degree Days  
Heating Degree Days 17 28  
Month to date heating degree days 699 585  
Since 1 July heating degree days 3768 3601  
Cooling Degree Days 0 0  
Month to date cooling degree days 0 0  
Year to date cooling degree days 0 0  
Moisture  
Dew Point 37 °F    
Average Humidity 73    
Maximum Humidity 93    
Minimum Humidity 53    
Precipitation  
Precipitation 0.00 in 0.04 in 1.15 in (1954)
Month to date precipitation 0.67 0.74  
Year to date precipitation 1.13 1.37  
Sea Level Pressure  
Sea Level Pressure 30.04 in    
Wind  
Wind Speed 8 mph (East)    
Max Wind Speed 15 mph    
Max Gust Speed 20 mph    
Visibility 9 miles    
Events      
T = Trace of Precipitation, MM = Missing Value Source: NWS Daily Summary

Daily Weather History Graph

Daily Weather History Graph

Search for Another Location

Airport or City:

Trip Planner

Search our weather history database for the weather conditions in past years. The results will help you decide how hot, cold, wet, or windy it might be!

Date:

Astronomy

Feb. 19, 2011 Rise Set
Actual Time 7:16 AM CST 6:12 PM CST
Civil Twilight 6:49 AM CST 6:39 PM CST
Nautical Twilight 6:18 AM CST 7:10 PM CST
Astronomical Twilight 5:48 AM CST 7:41 PM CST
Moon 8:19 PM CST (2/19) 7:41 AM CST (2/19)
Length of Visible Light 11h 49m
Length of Day
10h 55m
Full, 97% of the Moon is Illuminated
Feb 19
Full
Feb 24
Last Quarter
Mar 4
New
Mar 12
First Quarter
Mar 19
Full

Hourly Weather History & Observations

Time (CST) Temp. Windchill Dew Point Humidity Pressure Visibility Wind Dir Wind Speed Gust Speed Precip Events Conditions
12:53 AM 45.0 °F 41.8 °F 30.0 °F 56% 30.17 in 10.0 mi East 5.8 mph - N/A   Mostly Cloudy
1:53 AM 45.0 °F 41.8 °F 28.9 °F 53% 30.16 in 10.0 mi ENE 5.8 mph - N/A   Partly Cloudy
2:53 AM 43.0 °F 38.2 °F 28.9 °F 58% 30.14 in 10.0 mi ENE 8.1 mph - N/A   Scattered Clouds
3:24 AM 44.6 °F 41.4 °F 28.4 °F 53% 30.13 in 10.0 mi ENE 5.8 mph - N/A   Overcast
3:43 AM 42.8 °F 41.1 °F 28.4 °F 57% 30.13 in 10.0 mi East 3.5 mph - N/A   Scattered Clouds
3:53 AM 43.0 °F 40.3 °F 28.9 °F 58% 30.13 in 10.0 mi East 4.6 mph - N/A   Clear
4:53 AM 43.0 °F 40.3 °F 28.9 °F 58% 30.12 in 10.0 mi East 4.6 mph - N/A   Clear
5:53 AM 42.8 °F 39.3 °F 28.4 °F 57% 30.12 in 10.0 mi East 5.8 mph - N/A   Mostly Cloudy
6:43 AM 42.8 °F 40.1 °F 28.4 °F 57% 30.12 in 10.0 mi East 4.6 mph - N/A   Mostly Cloudy
6:53 AM 43.0 °F 39.5 °F 28.9 °F 58% 30.12 in 10.0 mi East 5.8 mph - N/A   Overcast
7:53 AM 43.0 °F 40.3 °F 30.0 °F 60% 30.14 in 10.0 mi East 4.6 mph - N/A   Overcast
8:53 AM 45.0 °F 42.6 °F 30.9 °F 58% 30.13 in 10.0 mi East 4.6 mph - N/A   Overcast
9:53 AM 46.9 °F - 34.0 °F 61% 30.12 in 10.0 mi ESE 10.4 mph - N/A   Overcast
10:00 AM 46.4 °F 43.5 °F 33.8 °F 62% 30.12 in 10.0 mi ESE 5.8 mph - N/A   Overcast
10:53 AM 51.8 °F - 37.4 °F 58% 30.11 in 10.0 mi ESE 8.1 mph - N/A   Overcast
11:53 AM 53.1 °F - 42.1 °F 66% 30.11 in 10.0 mi SE 8.1 mph - N/A   Overcast
12:53 PM 53.1 °F - 44.1 °F 71% 30.06 in 8.0 mi East 9.2 mph - N/A   Overcast
1:53 PM 51.8 °F - 44.6 °F 76% 30.03 in 6.0 mi East 10.4 mph - N/A   Haze
2:53 PM 51.1 °F - 46.0 °F 83% 30.01 in 7.0 mi ESE 11.5 mph - N/A   Overcast
3:53 PM 50.0 °F - 46.9 °F 89% 30.00 in 5.0 mi East 11.5 mph - N/A   Overcast
4:53 PM 48.9 °F - 46.9 °F 93% 29.97 in 2.5 mi East 10.4 mph - N/A   Overcast
5:20 PM 48.2 °F - 46.4 °F 93% 29.95 in 2.5 mi East 11.5 mph - N/A   Overcast
5:53 PM 48.9 °F - 46.0 °F 90% 29.95 in 6.0 mi East 10.4 mph - N/A   Overcast
6:53 PM 48.0 °F - 46.0 °F 93% 29.95 in 5.0 mi East 9.2 mph - N/A   Overcast
7:53 PM 48.0 °F - 45.0 °F 89% 29.93 in 7.0 mi East 6.9 mph - N/A   Overcast
8:53 PM 48.0 °F - 45.0 °F 89% 29.90 in 8.0 mi ESE 10.4 mph - N/A   Overcast
9:53 PM 46.9 °F - 43.0 °F 86% 29.89 in 10.0 mi ESE 9.2 mph - N/A   Overcast
10:53 PM 46.9 °F - 42.1 °F 83% 29.86 in 10.0 mi ESE 9.2 mph - N/A   Overcast
11:00 PM 46.4 °F 41.5 °F 42.8 °F 87% 29.85 in 10.0 mi ESE 10.4 mph - N/A   Mostly Cloudy
11:53 PM 46.0 °F 42.5 °F 42.1 °F 86% 29.84 in 10.0 mi East 6.9 mph - N/A   Overcast